Location: Newark
(27.9675°N, 86.8869°E)
Time: 01:05:37
(UTC+00:00)

Courier 1B Rocket - Pass Details

Date: 21 October 2019
Orbit: 920 x 1202 km, 28.2° (Epoch: 21 November)

Event Time Altitude Azimuth Distance (km) Brightness Sun altitude
Exits shadow 23:36:04 12° 275° (W) 2,473 6.4 -9.7°
Maximum altitude 23:41:57 87° 189° (S) 934 5.0 -8.4°
Drops below altitude 10° 23:48:25 10° 99° (E) 2,694 9.2 -7.0°
Sets 23:51:08 0° 99° (E) 3,676 10.9 -6.4°
